MWG2026 WIOO-WBGG

Flight info

Callsign MWG2026
Flight time 0h 48m
Altitude 17000
Route PAPSA PAPSA1A
Aircraft AT76/M-SDFGIRY/S

Departure

Time 2026-05-06 08:23
Airport Supadio International Airport (WIOO)

Arrival

Time 2026-05-06 09:11
Airport Kuching International Airport (WBGG)
Time Latitude Longitude Altitude Speed Heading
2026-05-06 07:51 -0.14693 109.40381 17 ft 0 kts 69°
2026-05-06 08:12 -0.14698 109.40367 17 ft 0 kts 69°
2026-05-06 08:13 -0.14754 109.40354 17 ft 0 kts 343°
2026-05-06 08:13 -0.14785 109.40368 17 ft 0 kts 336°
2026-05-06 08:19 -0.14784 109.40367 17 ft 4 kts 336°
2026-05-06 08:19 -0.14721 109.40337 17 ft 16 kts 332°
2026-05-06 08:19 -0.14688 109.40294 17 ft 5 kts 269°
2026-05-06 08:20 -0.14648 109.40210 17 ft 19 kts 323°
2026-05-06 08:20 -0.14470 109.40135 16 ft 16 kts 337°
2026-05-06 08:20 -0.14462 109.40132 18 ft 4 kts 335°
2026-05-06 08:20 -0.14383 109.40098 18 ft 17 kts 334°
2026-05-06 08:21 -0.14236 109.40034 18 ft 22 kts 324°
2026-05-06 08:21 -0.14169 109.40005 18 ft 1 kts 52°
2026-05-06 08:21 -0.14173 109.40010 18 ft 4 kts 133°
2026-05-06 08:21 -0.14218 109.40035 18 ft 0 kts 157°
2026-05-06 08:22 -0.14276 109.40058 19 ft 31 kts 158°
2026-05-06 08:22 -0.14647 109.40210 17 ft 84 kts 159°
2026-05-06 08:22 -0.15334 109.40488 23 ft 128 kts 157°
2026-05-06 08:23 -0.16146 109.40840 621 ft 118 kts 154°
2026-05-06 08:23 -0.16924 109.41223 952 ft 143 kts 150°
2026-05-06 08:23 -0.17726 109.41815 1509 ft 145 kts 128°
2026-05-06 08:23 -0.18060 109.42712 2052 ft 143 kts 107°
2026-05-06 08:24 -0.18348 109.43676 2649 ft 147 kts 99°
2026-05-06 08:24 -0.18045 109.44615 3173 ft 150 kts 37°
2026-05-06 08:24 -0.17086 109.44928 3740 ft 146 kts
2026-05-06 08:24 -0.16083 109.45093 4189 ft 147 kts 10°
2026-05-06 08:25 -0.15099 109.44987 4539 ft 146 kts 320°
2026-05-06 08:25 -0.14704 109.44108 4821 ft 146 kts 260°
2026-05-06 08:25 -0.15279 109.43316 5121 ft 148 kts 202°
2026-05-06 08:25 -0.16279 109.43353 5403 ft 148 kts 156°
2026-05-06 08:26 -0.17235 109.43782 5708 ft 151 kts 152°
2026-05-06 08:26 -0.18113 109.44362 6049 ft 152 kts 136°
2026-05-06 08:26 -0.18855 109.45126 6343 ft 155 kts 134°
2026-05-06 08:26 -0.19411 109.46032 6666 ft 156 kts 95°
2026-05-06 08:27 -0.19318 109.47109 6939 ft 158 kts 72°
2026-05-06 08:27 -0.18622 109.47897 7225 ft 155 kts 25°
2026-05-06 08:27 -0.17573 109.48116 7442 ft 155 kts
2026-05-06 08:27 -0.16563 109.48462 7701 ft 158 kts 38°
2026-05-06 08:28 -0.15671 109.49117 8008 ft 159 kts 30°
2026-05-06 08:28 -0.14688 109.49637 8297 ft 161 kts 26°
2026-05-06 08:28 -0.13665 109.50090 8613 ft 161 kts 20°
2026-05-06 08:28 -0.12608 109.50468 8919 ft 162 kts 18°
2026-05-06 08:29 -0.11538 109.50831 9226 ft 162 kts 18°
2026-05-06 08:29 -0.10460 109.51177 9536 ft 163 kts 13°
2026-05-06 08:29 -0.09348 109.51426 9808 ft 167 kts 11°
2026-05-06 08:29 -0.08204 109.51643 10084 ft 168 kts 10°
2026-05-06 08:30 -0.07060 109.51896 10382 ft 169 kts 13°
2026-05-06 08:30 -0.05926 109.52221 10210 ft 171 kts 18°
2026-05-06 08:30 -0.04770 109.52631 10364 ft 179 kts 23°
2026-05-06 08:30 -0.03628 109.53136 10618 ft 180 kts 27°
2026-05-06 08:31 -0.02506 109.53690 10871 ft 180 kts 28°
2026-05-06 08:31 -0.01390 109.54260 11138 ft 180 kts 28°
2026-05-06 08:31 -0.00268 109.54829 11395 ft 181 kts 28°
2026-05-06 08:31 0.00862 109.55392 11653 ft 182 kts 28°
2026-05-06 08:32 0.01998 109.55952 11930 ft 182 kts 28°
2026-05-06 08:32 0.03139 109.56513 12158 ft 185 kts 28°
2026-05-06 08:32 0.04282 109.57077 12372 ft 186 kts 28°
2026-05-06 08:32 0.05446 109.57652 12607 ft 187 kts 27°
2026-05-06 08:33 0.06614 109.58227 12832 ft 188 kts 28°
2026-05-06 08:33 0.07784 109.58803 13058 ft 188 kts 27°
2026-05-06 08:33 0.08962 109.59384 13281 ft 189 kts 28°
2026-05-06 08:33 0.10142 109.59966 13505 ft 189 kts 27°
2026-05-06 08:34 0.11323 109.60549 13702 ft 190 kts 28°
2026-05-06 08:34 0.13700 109.61720 14078 ft 191 kts 27°
2026-05-06 08:34 0.14905 109.62314 14200 ft 195 kts 27°
2026-05-06 08:35 0.16127 109.62917 14373 ft 196 kts 27°
2026-05-06 08:35 0.17355 109.63522 14554 ft 197 kts 27°
2026-05-06 08:35 0.18582 109.64128 14727 ft 197 kts 27°
2026-05-06 08:35 0.19814 109.64734 14898 ft 198 kts 27°
2026-05-06 08:36 0.21048 109.65343 15070 ft 198 kts 27°
2026-05-06 08:36 0.22285 109.65953 15236 ft 199 kts 27°
2026-05-06 08:36 0.23526 109.66563 15401 ft 199 kts 27°
2026-05-06 08:36 0.24767 109.67176 15563 ft 199 kts 27°
2026-05-06 08:37 0.26013 109.67789 15732 ft 200 kts 27°
2026-05-06 08:37 0.27260 109.68405 15884 ft 200 kts 27°
2026-05-06 08:37 0.28510 109.69022 16044 ft 201 kts 27°
2026-05-06 08:37 0.29768 109.69643 16186 ft 202 kts 27°
2026-05-06 08:38 0.31046 109.70272 16255 ft 207 kts 27°
2026-05-06 08:38 0.32341 109.70911 16384 ft 208 kts 27°
2026-05-06 08:38 0.33644 109.71553 16522 ft 209 kts 27°
2026-05-06 08:38 0.34943 109.72194 16653 ft 209 kts 27°
2026-05-06 08:39 0.36260 109.72843 16715 ft 213 kts 27°
2026-05-06 08:39 0.37608 109.73508 16743 ft 218 kts 27°
2026-05-06 08:39 0.38985 109.74186 16761 ft 223 kts 27°
2026-05-06 08:39 0.40395 109.74880 16768 ft 228 kts 27°
2026-05-06 08:40 0.41814 109.75579 16769 ft 232 kts 27°
2026-05-06 08:40 0.43274 109.76299 16772 ft 236 kts 27°
2026-05-06 08:40 0.44752 109.77028 16768 ft 238 kts 27°
2026-05-06 08:40 0.46247 109.77762 16773 ft 241 kts 27°
2026-05-06 08:41 0.47755 109.78508 16775 ft 243 kts 27°
2026-05-06 08:41 0.49273 109.79255 16775 ft 244 kts 27°
2026-05-06 08:41 0.50805 109.80012 16771 ft 246 kts 27°
2026-05-06 08:41 0.52342 109.80770 16777 ft 247 kts 27°
2026-05-06 08:42 0.53887 109.81530 16778 ft 248 kts 27°
2026-05-06 08:42 0.55443 109.82295 16776 ft 250 kts 27°
2026-05-06 08:42 0.57003 109.83068 16775 ft 251 kts 27°
2026-05-06 08:42 0.58565 109.83839 16777 ft 251 kts 27°
2026-05-06 08:43 0.60133 109.84611 16779 ft 251 kts 27°
2026-05-06 08:43 0.61699 109.85382 16777 ft 251 kts 27°
2026-05-06 08:43 0.63246 109.86145 16780 ft 251 kts 27°
2026-05-06 08:43 0.64813 109.86918 16783 ft 251 kts 27°
2026-05-06 08:44 0.66382 109.87691 16782 ft 251 kts 27°
2026-05-06 08:44 0.67951 109.88467 16786 ft 252 kts 27°
2026-05-06 08:44 0.69520 109.89240 16788 ft 252 kts 27°
2026-05-06 08:44 0.71090 109.90014 16787 ft 251 kts 27°
2026-05-06 08:45 0.72658 109.90786 16788 ft 251 kts 27°
2026-05-06 08:45 0.74226 109.91561 16793 ft 252 kts 27°
2026-05-06 08:45 0.75795 109.92335 16792 ft 252 kts 27°
2026-05-06 08:45 0.77364 109.93107 16791 ft 250 kts 27°
2026-05-06 08:46 0.78924 109.93876 16796 ft 250 kts 27°
2026-05-06 08:46 0.80483 109.94645 16792 ft 251 kts 27°
2026-05-06 08:46 0.82057 109.95421 16795 ft 253 kts 27°
2026-05-06 08:46 0.83630 109.96196 16802 ft 251 kts 27°
2026-05-06 08:47 0.85195 109.96968 16797 ft 250 kts 27°
2026-05-06 08:47 0.86755 109.97738 16795 ft 250 kts 27°
2026-05-06 08:47 0.88313 109.98505 16799 ft 250 kts 27°
2026-05-06 08:47 0.89874 109.99276 16799 ft 250 kts 27°
2026-05-06 08:48 0.91434 110.00045 16803 ft 251 kts 27°
2026-05-06 08:48 0.93000 110.00816 16801 ft 251 kts 27°
2026-05-06 08:48 0.94559 110.01586 16803 ft 249 kts 27°
2026-05-06 08:48 0.96113 110.02352 16805 ft 249 kts 27°
2026-05-06 08:49 0.97670 110.03119 16807 ft 249 kts 27°
2026-05-06 08:49 0.99229 110.03889 16805 ft 250 kts 27°
2026-05-06 08:49 1.00785 110.04657 16804 ft 249 kts 27°
2026-05-06 08:49 1.02336 110.05422 16802 ft 248 kts 27°
2026-05-06 08:50 1.03887 110.06186 16802 ft 249 kts 28°
2026-05-06 08:50 1.05443 110.06954 16803 ft 250 kts 27°
2026-05-06 08:50 1.06999 110.07721 16810 ft 249 kts 27°
2026-05-06 08:50 1.08558 110.08489 16805 ft 251 kts 28°
2026-05-06 08:51 1.10121 110.09258 16806 ft 250 kts 27°
2026-05-06 08:51 1.11680 110.10028 16808 ft 250 kts 28°
2026-05-06 08:51 1.13236 110.10796 16805 ft 249 kts 27°
2026-05-06 08:51 1.14785 110.11559 16805 ft 249 kts 27°
2026-05-06 08:52 1.16341 110.12325 16803 ft 249 kts 27°
2026-05-06 08:52 1.17895 110.13088 16805 ft 250 kts 28°
2026-05-06 08:52 1.19428 110.13849 16806 ft 247 kts 30°
2026-05-06 08:52 1.20646 110.14989 16810 ft 241 kts 57°
2026-05-06 08:53 1.21485 110.16448 16796 ft 243 kts 63°
2026-05-06 08:53 1.22253 110.17951 16802 ft 243 kts 64°
2026-05-06 08:53 1.23026 110.19454 16803 ft 244 kts 63°
2026-05-06 08:53 1.23826 110.20953 16763 ft 246 kts 62°
2026-05-06 08:54 1.24671 110.22457 16594 ft 253 kts 62°
2026-05-06 08:54 1.25557 110.24009 16399 ft 261 kts 61°
2026-05-06 08:54 1.26480 110.25596 16203 ft 267 kts 60°
2026-05-06 08:54 1.27413 110.27213 16014 ft 270 kts 61°
2026-05-06 08:55 1.28342 110.28853 15796 ft 274 kts 61°
2026-05-06 08:55 1.29290 110.30528 15534 ft 279 kts 61°
2026-05-06 08:55 1.30250 110.32222 15275 ft 281 kts 61°
2026-05-06 08:55 1.31218 110.33934 15014 ft 285 kts 61°
2026-05-06 08:56 1.32195 110.35662 14765 ft 287 kts 61°
2026-05-06 08:56 1.33178 110.37401 14475 ft 288 kts 61°
2026-05-06 08:56 1.34112 110.39063 14127 ft 260 kts 61°
2026-05-06 08:56 1.34965 110.40566 13779 ft 239 kts 61°
2026-05-06 08:57 1.35758 110.41963 13418 ft 224 kts 61°
2026-05-06 08:57 1.36509 110.43289 13043 ft 213 kts 61°
2026-05-06 08:57 1.37223 110.44551 12658 ft 205 kts 61°
2026-05-06 08:57 1.37912 110.45771 12283 ft 198 kts 61°
2026-05-06 08:58 1.38587 110.46963 11874 ft 198 kts 61°
2026-05-06 08:58 1.39267 110.48165 11391 ft 199 kts 60°
2026-05-06 08:58 1.39955 110.49366 10950 ft 198 kts 60°
2026-05-06 08:58 1.40635 110.50537 10610 ft 193 kts 60°
2026-05-06 08:59 1.41308 110.51694 10260 ft 192 kts 60°
2026-05-06 08:59 1.41990 110.52859 9920 ft 201 kts 59°
2026-05-06 08:59 1.42731 110.54111 9571 ft 217 kts 60°
2026-05-06 08:59 1.43513 110.55448 9201 ft 228 kts 60°
2026-05-06 09:00 1.44326 110.56847 8833 ft 237 kts 60°
2026-05-06 09:00 1.45162 110.58290 8463 ft 243 kts 60°
2026-05-06 09:00 1.46016 110.59765 8097 ft 247 kts 60°
2026-05-06 09:00 1.46883 110.61261 7741 ft 250 kts 60°
2026-05-06 09:01 1.47750 110.62756 7387 ft 253 kts 60°
2026-05-06 09:01 1.48633 110.64281 7028 ft 254 kts 60°
2026-05-06 09:01 1.49531 110.65832 6673 ft 255 kts 60°
2026-05-06 09:01 1.50407 110.67346 6360 ft 254 kts 60°
2026-05-06 09:02 1.51305 110.68858 6017 ft 251 kts 55°
2026-05-06 09:02 1.52657 110.69929 5648 ft 252 kts 21°
2026-05-06 09:02 1.54382 110.70078 5277 ft 253 kts 348°
2026-05-06 09:02 1.56047 110.69511 4797 ft 255 kts 338°
2026-05-06 09:03 1.57666 110.68779 4316 ft 256 kts 327°
2026-05-06 09:03 1.58816 110.67431 3821 ft 259 kts 294°
2026-05-06 09:03 1.59118 110.65747 3351 ft 232 kts 271°
2026-05-06 09:03 1.59122 110.64198 2870 ft 215 kts 269°
2026-05-06 09:04 1.58964 110.62796 2563 ft 192 kts 258°
2026-05-06 09:04 1.58652 110.61550 2419 ft 187 kts 255°
2026-05-06 09:04 1.58269 110.60225 2361 ft 210 kts 254°
2026-05-06 09:04 1.57837 110.58764 2331 ft 220 kts 254°
2026-05-06 09:05 1.57415 110.57333 2314 ft 208 kts 253°
2026-05-06 09:05 1.56961 110.55996 2305 ft 198 kts 250°
2026-05-06 09:05 1.56628 110.55162 2291 ft 193 kts 248°
2026-05-06 09:05 1.56113 110.53956 2282 ft 185 kts 248°
2026-05-06 09:06 1.55639 110.52833 2291 ft 163 kts 250°
2026-05-06 09:06 1.55237 110.51826 2278 ft 154 kts 250°
2026-05-06 09:06 1.54859 110.50853 2294 ft 147 kts 250°
2026-05-06 09:06 1.54498 110.49915 2294 ft 143 kts 250°
2026-05-06 09:07 1.54143 110.49001 2289 ft 139 kts 250°
2026-05-06 09:07 1.53790 110.48105 2291 ft 141 kts 250°
2026-05-06 09:07 1.53418 110.47172 2174 ft 145 kts 250°
2026-05-06 09:07 1.53048 110.46243 2003 ft 143 kts 251°
2026-05-06 09:08 1.52687 110.45328 1822 ft 136 kts 252°
2026-05-06 09:08 1.52364 110.44476 1661 ft 128 kts 252°
2026-05-06 09:08 1.52037 110.43662 1492 ft 127 kts 252°
2026-05-06 09:08 1.51701 110.42831 1325 ft 130 kts 251°
2026-05-06 09:09 1.51370 110.41993 1160 ft 130 kts 253°
2026-05-06 09:09 1.51051 110.41167 1021 ft 124 kts 253°
2026-05-06 09:09 1.50741 110.40354 845 ft 125 kts 251°
2026-05-06 09:09 1.50445 110.39591 715 ft 113 kts 253°
2026-05-06 09:10 1.50137 110.38871 559 ft 114 kts 251°
2026-05-06 09:10 1.49840 110.38130 391 ft 116 kts 252°
2026-05-06 09:10 1.49546 110.37390 228 ft 115 kts 254°
2026-05-06 09:10 1.49279 110.36663 59 ft 106 kts 245°
2026-05-06 09:11 1.49116 110.36212 55 ft 43 kts 248°
2026-05-06 09:11 1.49043 110.35972 61 ft 19 kts 301°
2026-05-06 09:11 1.49146 110.35894 60 ft 17 kts 279°
2026-05-06 09:11 1.49095 110.35743 63 ft 28 kts 246°
2026-05-06 09:12 1.49035 110.35595 65 ft 28 kts 248°
2026-05-06 09:12 1.48974 110.35428 65 ft 24 kts 249°
2026-05-06 09:12 1.48909 110.35276 69 ft 24 kts 249°
2026-05-06 09:12 1.48854 110.35122 69 ft 23 kts 252°
2026-05-06 09:13 1.48793 110.34974 70 ft 24 kts 245°
2026-05-06 09:13 1.48727 110.34819 72 ft 24 kts 248°
2026-05-06 09:13 1.48664 110.34660 78 ft 25 kts 253°
2026-05-06 09:13 1.48673 110.34588 84 ft 2 kts 298°
2026-05-06 09:14 1.48677 110.34580 83 ft 16 kts 297°
2026-05-06 09:14 1.48687 110.34555 80 ft 9 kts 285°
2026-05-06 09:14 1.48676 110.34480 83 ft 7 kts 273°
2026-05-06 09:14 1.48706 110.34454 80 ft 11 kts 345°
2026-05-06 09:15 1.48721 110.34449 83 ft 0 kts 340°